Wind_Speed
37 38 39 41 42 42 43 44 44 45 45 46 46 46 46 46 47 48 49 51 52 52 51 51 51 52 52 52 51 51 50 49 47 45 45 46 47 47 47 46 46 47 49
38 39 39 40 42 42 43 43 43 44 44 45 45 45 45 46 47 48 49 50 50 50 50 50 50 51 50 49 49 49 48 46 46 43 42 43 44 44 44 42 42 43 45
38 39 40 41 41 41 42 42 42 43 43 44 44 45 45 46 47 48 49 48 48 49 50 50 50 49 48 47 47 46 46 44 44 42 41 41 41 41 40 39 39 40 40
39 39 40 40 41 40 40 41 42 42 42 43 44 44 45 46 46 47 47 47 47 48 49 49 48 46 45 44 44 43 43 42 41 39 39 38 39 39 39 38 37 37 37
39 40 40 40 40 40 40 40 41 41 42 42 43 44 45 45 46 46 46 46 46 47 46 46 44 43 42 41 41 41 40 39 38 38 37 36 36 36 36 36 36 34 33
39 39 39 39 39 39 39 40 40 41 41 42 42 43 43 44 44 44 45 44 44 43 42 41 40 39 39 39 39 38 37 37 36 35 35 34 34 35 35 35 34 34 32
37 37 38 38 39 39 39 39 40 40 40 41 41 41 41 41 41 42 42 42 41 40 39 37 37 37 38 38 37 35 34 34 34 33 33 32 32 32 32 33 34 33 33
36 36 37 38 38 38 38 38 39 39 39 39 39 39 39 38 38 39 38 38 38 38 37 36 36 36 36 36 35 33 32 33 33 32 31 31 30 30 30 31 31 31 31
36 36 37 37 37 37 37 37 37 37 37 37 37 36 36 35 36 37 37 37 36 36 35 35 35 34 33 33 31 30 30 30 31 29 28 28 28 28 29 29 29 29 29
34 35 35 36 36 36 36 36 36 36 35 35 34 34 34 34 35 35 35 35 34 33 32 32 31 31 30 29 28 28 28 28 28 27 27 26 26 26 26 26 26 27 27
35 35 35 35 35 35 35 34 34 34 34 33 33 33 33 32 33 32 33 33 32 31 30 29 29 28 27 26 26 26 25 25 26 26 27 27 26 25 24 24 26 26 25
34 34 34 34 35 34 34 34 34 34 32 32 32 32 31 31 31 31 32 32 31 30 28 27 27 26 25 25 24 24 23 23 24 25 26 26 25 24 24 23 24 24 23
34 33 33 33 33 32 33 33 33 32 31 30 30 28 29 29 30 31 31 30 30 29 28 26 25 24 23 23 22 21 21 21 22 23 23 23 23 22 22 22 22 22 21
33 33 33 32 31 31 31 30 30 29 28 28 27 28 28 28 29 29 30 29 29 28 26 25 24 23 22 21 20 18 18 19 18 18 18 19 20 20 21 21 21 20 20
33 33 33 32 31 30 29 28 28 27 27 27 27 27 27 26 27 28 28 28 28 26 25 23 22 21 21 19 18 17 16 15 16 15 14 15 16 17 17 18 18 18 18
31 31 30 29 29 28 27 26 26 26 26 26 26 26 26 26 26 27 27 26 25 23 22 21 20 20 19 18 17 16 14 13 14 13 12 13 15 16 16 16 17 17 17
29 28 27 26 26 25 25 24 25 25 25 25 25 25 25 25 25 25 25 24 23 22 21 20 19 19 18 16 15 13 12 11 12 12 11 12 13 14 15 15 16 15 16
25 25 24 24 23 22 22 23 23 23 23 24 24 24 25 25 25 25 25 23 22 21 20 19 18 17 15 13 12 10 9 9 9 10 11 11 12 13 14 15 14 13 13
23 22 22 21 21 20 21 21 21 22 22 23 23 24 25 25 25 24 24 22 20 19 18 17 16 15 13 12 10 8 7 7 7 8 10 10 11 12 13 13 13 13 12
22 21 20 20 20 20 20 20 21 21 22 22 22 23 23 23 23 22 22 20 18 17 16 16 15 14 12 10 8 6 6 7 7 8 9 9 10 10 11 11 11 11 10
21 20 19 19 19 20 20 21 22 22 22 22 22 22 22 21 21 20 19 17 16 15 14 14 13 12 10 8 7 7 7 7 7 7 8 9 9 9 9 9 10 10 9
19 19 19 19 20 20 21 21 21 22 22 22 22 23 22 21 20 19 17 15 13 13 12 11 10 9 8 7 7 7 7 7 7 7 7 8 9 9 9 9 10 9 10
19 19 19 20 20 21 21 22 21 22 22 22 22 22 21 19 19 18 15 13 12 11 10 9 9 8 7 5 6 6 6 6 7 7 7 7 9 9 9 9 10 10 9
19 19 19 20 20 21 21 21 22 22 22 21 21 20 19 18 17 16 14 13 11 10 9 8 8 7 6 5 5 6 6 7 7 7 6 7 9 9 9 9 9 10 10
18 19 19 20 21 21 22 22 22 22 21 21 20 19 17 16 15 13 12 11 10 9 8 7 6 6 5 5 6 7 7 7 7 7 6 7 8 8 8 9 10 10 11
18 19 19 20 21 21 22 22 21 21 20 19 18 17 16 15 13 12 10 8 7 7 6 6 5 5 4 5 6 7 8 8 7 7 7 8 8 8 9 9 10 11 11
Wind_Direction
279 281 281 282 282 282 281 282 282 283 284 285 287 287 287 288 287 288 289 290 290 289 289 287 285 283 283 282 280 279 278 278 276 274 274 271 269 268 267 268 267 266 262
279 281 282 283 283 283 282 283 283 284 285 286 287 288 289 289 289 290 291 292 290 289 290 289 286 284 284 283 280 278 276 275 274 273 273 270 269 269 268 268 269 267 263
281 282 284 285 285 285 284 284 284 286 286 287 287 289 290 290 291 291 292 292 292 291 290 290 289 286 283 282 280 277 275 274 273 272 271 269 268 268 267 268 268 265 263
282 284 285 286 287 286 285 285 286 287 288 288 289 290 292 292 292 292 292 293 293 293 293 291 290 286 282 281 279 276 274 273 273 271 269 268 267 266 266 266 265 263 260
283 284 285 286 286 286 285 285 287 288 289 290 291 292 292 292 293 293 294 294 295 296 294 291 290 287 283 281 279 277 274 271 271 269 268 267 266 266 265 264 263 260 258
283 284 284 285 286 286 286 287 288 290 291 292 293 293 293 293 294 295 296 296 296 297 295 293 291 289 285 282 280 278 274 271 269 268 266 266 266 265 264 262 260 258 256
282 283 284 285 286 286 287 288 290 292 292 293 294 294 294 294 295 297 297 297 298 299 298 296 293 291 287 282 278 277 273 270 269 268 266 264 264 262 262 259 258 258 257
281 283 284 285 286 288 288 290 291 292 293 294 295 295 296 296 297 298 298 299 301 301 299 298 295 293 289 284 278 274 273 270 267 267 266 262 261 260 259 257 255 255 254
281 282 284 286 287 288 288 289 291 292 293 295 296 295 296 297 299 300 300 301 302 302 300 298 296 294 291 285 278 274 271 269 265 264 264 261 259 256 256 255 252 252 252
282 283 285 286 287 288 288 290 291 292 294 295 295 297 298 299 300 301 302 303 304 303 302 300 298 296 293 288 282 275 271 266 262 262 261 259 257 254 253 250 247 247 250
283 284 286 287 287 288 289 290 291 292 294 295 296 298 299 300 301 302 304 306 307 306 304 301 298 296 293 290 286 278 271 265 262 261 260 257 255 253 250 248 247 247 247
284 286 287 288 288 288 289 290 292 293 294 295 297 298 299 301 301 303 305 307 307 308 306 304 300 297 294 292 288 281 271 264 262 262 260 255 253 251 248 245 245 246 248
284 286 287 288 289 289 290 292 293 293 294 296 298 299 300 301 301 302 305 305 306 307 307 305 302 299 296 294 290 282 273 267 263 262 258 252 249 247 247 244 243 244 246
284 284 285 286 287 288 290 291 293 293 295 297 298 300 301 301 301 303 304 304 305 305 304 303 301 300 298 296 292 284 275 267 261 257 251 248 248 246 244 240 238 242 242
283 283 283 284 286 287 288 289 291 292 295 296 298 299 301 301 302 304 305 305 305 303 302 300 299 299 298 295 291 285 276 264 257 251 248 248 245 241 239 234 234 236 235
283 283 283 284 285 286 287 289 291 293 296 298 299 301 302 303 305 306 306 306 306 306 304 302 301 301 299 296 290 284 273 260 253 248 245 241 236 233 230 228 231 229 228
284 283 283 284 286 288 288 291 294 296 298 300 302 303 304 304 305 306 306 306 306 305 304 302 301 303 302 299 292 283 270 257 246 242 240 234 230 228 227 228 226 227 229
284 283 283 286 288 289 291 294 297 299 300 301 303 305 306 306 307 308 308 307 306 304 303 302 303 305 303 297 291 278 264 249 241 238 235 230 227 226 225 224 223 225 228
283 283 285 287 288 291 294 297 300 302 302 302 303 305 307 308 309 310 310 308 306 303 302 302 303 304 301 294 286 272 254 241 234 231 226 221 221 220 221 224 227 229 230
282 284 286 288 287 289 293 296 300 302 304 304 304 306 307 306 307 309 309 307 303 302 301 302 302 302 298 288 273 256 240 236 232 227 223 221 221 219 219 222 225 223 220
282 283 284 287 288 288 292 297 300 303 304 306 308 309 310 308 308 308 306 301 298 297 298 299 300 298 292 278 257 244 243 241 234 224 222 221 216 217 215 214 213 213 213
280 282 285 288 290 291 293 297 300 302 304 306 306 309 309 306 306 307 305 300 297 299 299 297 298 297 289 269 249 243 239 231 221 215 213 216 214 211 207 208 208 206 201
281 283 286 289 292 295 296 297 299 302 303 303 304 306 306 303 303 304 302 298 295 295 295 294 295 294 284 262 245 232 224 213 202 197 201 204 199 197 197 198 195 191 191
281 282 286 289 293 296 297 296 297 300 301 302 302 303 302 301 301 301 297 293 287 286 287 288 287 287 275 255 232 212 202 196 193 192 193 189 190 193 192 189 183 179 178
282 284 286 289 293 296 297 297 297 298 299 299 298 299 299 297 296 295 291 287 282 277 276 277 276 274 262 240 214 200 191 189 189 185 181 180 182 187 186 181 176 174 172
285 287 289 292 294 296 297 298 297 296 296 296 295 295 295 294 291 289 284 275 272 267 264 268 265 255 238 212 191 188 189 185 179 176 176 174 175 176 176 176 175 174 172
Height
5639 5636 5634 5631 5628 5625 5623 5620 5617 5614 5611 5608 5604 5601 5597 5594 5590 5587 5584 5580 5576 5572 5568 5565 5562 5559 5556 5553 5551 5548 5546 5544 5543 5545 5545 5544 5543 5543 5543 5544 5545 5546 5548
5629 5626 5623 5620 5617 5614 5611 5609 5606 5602 5599 5596 5593 5589 5586 5582 5578 5575 5571 5567 5563 5559 5555 5551 5548 5545 5542 5539 5537 5535 5533 5531 5530 5531 5532 5531 5531 5530 5531 5532 5532 5533 5535
5618 5615 5612 5609 5606 5602 5600 5597 5595 5591 5588 5585 5581 5578 5574 5570 5566 5563 5559 5554 5550 5546 5542 5538 5534 5530 5528 5526 5523 5521 5520 5519 5518 5518 5519 5519 5519 5519 5519 5520 5521 5522 5524
5608 5605 5602 5598 5595 5592 5589 5586 5583 5580 5577 5574 5570 5567 5563 5559 5555 5551 5546 5542 5538 5533 5529 5524 5520 5517 5515 5513 5511 5509 5507 5507 5506 5506 5507 5507 5508 5508 5509 5510 5511 5512 5514
5597 5594 5591 5587 5584 5581 5578 5575 5573 5570 5567 5563 5560 5556 5552 5548 5544 5539 5535 5530 5526 5522 5517 5512 5508 5505 5502 5500 5498 5497 5496 5495 5495 5496 5496 5497 5498 5498 5499 5500 5502 5503 5505
5586 5583 5580 5577 5574 5571 5568 5565 5562 5559 5556 5553 5549 5545 5541 5537 5533 5528 5523 5518 5514 5510 5505 5501 5497 5493 5490 5488 5487 5485 5485 5485 5486 5486 5487 5488 5489 5489 5490 5491 5492 5494 5497
5576 5573 5570 5567 5564 5561 5558 5556 5553 5550 5546 5543 5539 5535 5531 5527 5523 5518 5513 5508 5503 5499 5494 5491 5487 5484 5480 5478 5477 5476 5476 5476 5476 5476 5478 5479 5480 5481 5481 5483 5484 5486 5489
5566 5563 5560 5558 5555 5552 5549 5546 5543 5540 5537 5533 5530 5526 5522 5518 5513 5508 5503 5499 5494 5490 5485 5481 5477 5474 5470 5467 5466 5466 5466 5467 5467 5467 5468 5470 5471 5472 5472 5474 5476 5478 5481
5556 5554 5551 5548 5546 5543 5540 5537 5534 5531 5528 5524 5521 5517 5513 5509 5505 5500 5495 5490 5486 5481 5477 5472 5468 5464 5461 5458 5457 5457 5458 5458 5458 5459 5460 5461 5462 5463 5464 5466 5468 5470 5473
5547 5545 5542 5539 5536 5533 5531 5528 5525 5522 5519 5515 5512 5508 5505 5501 5497 5492 5487 5482 5478 5474 5469 5465 5460 5456 5453 5450 5448 5448 5449 5450 5450 5451 5452 5453 5454 5456 5457 5459 5461 5464 5466
5538 5535 5533 5530 5527 5524 5522 5519 5516 5513 5510 5507 5504 5501 5497 5493 5489 5484 5480 5475 5470 5466 5462 5458 5454 5450 5446 5444 5442 5441 5441 5442 5443 5444 5445 5446 5447 5449 5451 5453 5455 5458 5461
5529 5526 5524 5521 5518 5516 5513 5510 5508 5505 5502 5499 5496 5493 5489 5485 5481 5477 5473 5468 5463 5459 5455 5451 5448 5444 5441 5438 5436 5434 5434 5434 5436 5437 5438 5439 5441 5443 5445 5448 5450 5452 5455
5520 5518 5515 5513 5510 5507 5505 5502 5499 5496 5493 5491 5488 5485 5482 5478 5475 5471 5467 5462 5457 5452 5449 5445 5442 5438 5435 5433 5430 5428 5428 5428 5429 5430 5432 5433 5435 5438 5440 5442 5444 5447 5449
5511 5509 5506 5504 5502 5499 5496 5494 5491 5488 5486 5483 5480 5478 5475 5472 5468 5464 5460 5456 5452 5447 5443 5440 5436 5433 5430 5428 5425 5424 5423 5423 5424 5425 5427 5428 5430 5432 5434 5437 5439 5442 5444
5502 5500 5498 5496 5494 5491 5489 5486 5484 5481 5478 5475 5473 5470 5468 5465 5461 5457 5453 5449 5445 5442 5438 5435 5432 5429 5426 5423 5421 5420 5419 5419 5420 5421 5422 5424 5426 5427 5430 5432 5435 5437 5440
5493 5491 5489 5487 5485 5483 5481 5479 5476 5474 5471 5468 5465 5463 5460 5457 5454 5451 5447 5443 5439 5436 5432 5430 5427 5424 5422 5419 5418 5417 5416 5416 5417 5418 5419 5420 5422 5424 5426 5429 5431 5434 5436
5484 5482 5481 5479 5477 5475 5473 5472 5470 5467 5464 5461 5459 5456 5453 5450 5447 5444 5441 5437 5434 5430 5428 5425 5423 5420 5418 5416 5414 5414 5413 5413 5414 5415 5416 5417 5419 5421 5423 5425 5428 5430 5432
5476 5474 5473 5472 5470 5468 5467 5465 5463 5461 5459 5456 5453 5450 5447 5444 5441 5438 5434 5432 5429 5426 5423 5421 5418 5416 5414 5412 5411 5411 5410 5410 5411 5412 5413 5414 5416 5418 5420 5422 5424 5426 5429
5469 5468 5466 5465 5463 5462 5461 5459 5457 5454 5452 5450 5447 5444 5441 5438 5435 5432 5428 5426 5424 5421 5419 5417 5415 5413 5411 5409 5409 5408 5408 5408 5409 5410 5411 5412 5413 5415 5417 5419 5421 5423 5425
5462 5461 5460 5459 5458 5456 5455 5453 5451 5449 5447 5444 5442 5439 5436 5433 5430 5427 5424 5421 5419 5417 5415 5413 5411 5409 5408 5407 5406 5406 5407 5407 5407 5408 5409 5410 5411 5413 5414 5416 5418 5420 5422
5456 5455 5454 5453 5452 5450 5449 5447 5446 5444 5441 5439 5436 5433 5430 5427 5424 5422 5419 5417 5415 5413 5411 5410 5408 5406 5405 5404 5404 5405 5405 5405 5406 5406 5407 5408 5409 5411 5412 5414 5416 5418 5420
5450 5449 5448 5447 5446 5444 5443 5441 5439 5438 5435 5433 5430 5427 5424 5421 5419 5417 5414 5412 5410 5409 5408 5406 5405 5404 5403 5402 5402 5402 5403 5403 5404 5404 5405 5406 5408 5409 5411 5413 5415 5417 5419
5444 5443 5442 5441 5440 5438 5437 5435 5433 5431 5429 5427 5424 5422 5419 5416 5414 5412 5410 5408 5407 5405 5404 5403 5402 5401 5401 5400 5400 5400 5401 5401 5402 5403 5405 5406 5407 5409 5410 5412 5414 5416 5418
5438 5437 5436 5435 5434 5432 5430 5428 5427 5425 5423 5420 5418 5416 5413 5411 5409 5407 5405 5404 5403 5402 5401 5400 5400 5399 5398 5398 5398 5399 5399 5400 5402 5403 5404 5405 5406 5408 5410 5412 5414 5416 5418
5432 5431 5430 5429 5427 5426 5424 5422 5420 5418 5416 5414 5412 5410 5407 5406 5404 5402 5401 5400 5399 5399 5398 5398 5397 5397 5396 5396 5397 5397 5399 5400 5401 5402 5404 5405 5406 5408 5409 5411 5414 5416 5418
5426 5425 5424 5422 5421 5419 5417 5415 5413 5411 5409 5408 5406 5404 5402 5401 5399 5398 5397 5397 5396 5396 5396 5395 5395 5395 5395 5395 5396 5397 5398 5399 5400 5402 5403 5405 5406 5408 5409 5411 5414 5416 5418